AirNav   Air Wisconsin Up To $57,000 Bonus
 
 1028 users online  

5MO5 St Lukes Hospital Heliport
Kansas City, Missouri, USA

GOING TO KANSAS CITY?


FAA INFORMATION EFFECTIVE 22 APRIL 2021

Location

FAA Identifier: 5MO5
Lat/Long: 39-02-47.3700N 094-35-21.5900W
39-02.789500N 094-35.359833W
39.0464917,-94.5893306
(estimated)
Elevation: 980 ft. / 299 m (estimated)
Variation: 05E (1985)
Time zone: UTC -5 (UTC -6 during Standard Time)
Zip code: 64111

Heliport Operations

Heliport use: Private use, MEDICAL USE.
Activation date: 04/1991
Control tower: no
ARTCC: KANSAS CITY CENTER
FSS: COLUMBIA FLIGHT SERVICE STATION
Attendance: CONTINUOUS
Wind indicator: lighted
Segmented circle: no
Lights: SS-SR
Beacon: white-green-yellow (heliport)
ACTVT ROTG BCN - 123.05

Heliport Communications

WX ASOS at MKC (5 nm N): PHONE 816-329-2843
WX ASOS at LXT (11 nm SE): 124.175 (816-347-9807)
WX ASOS at OJC (14 nm SW): 119.35 (913-780-6969)
WX ASOS at MCI (16 nm N): PHONE 816-329-2808
WX ASOS at IXD (19 nm SW): 135.325 (913-780-6987)

Nearby radio navigation aids

VOR radial/distance  VOR name  Freq  Var
MCIr149/15.9KANSAS CITY VORTAC113.2505E
ANXr255/21.7NAPOLEON VORTAC114.0007E

Heliport Services

Runway Information

Helipad H1

Dimensions: 52 x 50 ft. / 16 x 15 m
Surface: concrete
ROOFTOP.
Runway edge lights: PERI
Latitude: 39-02.789500N
Longitude: 094-35.359833W
Elevation: 980.0 ft.
Traffic pattern: leftleft

Helipad H2

Dimensions: 52 x 50 ft. / 16 x 15 m
Surface: concrete
Runway edge lights: PERI
Latitude: 39-02.777833N
Longitude: 094-35.360667W
Elevation: 980.0 ft.
Traffic pattern: leftleft

Heliport Ownership and Management from official FAA records

Ownership: Privately-owned
Owner: ST LUKES HOSPITAL
4401 WORNALL ROAD
KANSAS CITY, MO 64111
Phone 816-932-2000
Manager: JANE PECK
4401 WORNALL ROAD, 4401 WORNALL ROAD
KANSAS CITY, MO 64111
Phone 816-932-2000
DIRECTOR SAFETY & PREPAREDNESS DEREK COLLINS 816-932-7496

Additional Remarks

OWNER DESIRES ARPT NOT BE CHARTED.
FOR CD CTC KANSAS CITY APCH AT 816-329-2710.

Instrument Procedures

There are no published instrument procedures at 5MO5.

Some nearby airports with instrument procedures:

KMKC - Charles B Wheeler Downtown Airport (5 nm N)
KLXT - Lee's Summit Municipal Airport (11 nm SE)
KOJC - Johnson County Executive Airport (14 nm SW)
KMCI - Kansas City International Airport (16 nm N)
3GV - East Kansas City Airport (18 nm E)
KIXD - New Century AirCenter Airport (19 nm SW)
 
Loc | Ops | Rwys | IFR | FBO | Links
Com | Nav | Svcs | Stats | Notes
Area around 5MO5 (St Lukes Hospital Heliport)
 
Road maps at: MapQuest Bing Google
 
Aerial photo
No photo
 
Sectional chart

 
Airport distance calculator
Flying to St Lukes Hospital Heliport? Find the distance to fly.

From to 5MO5

Sunrise and sunset
Times for 22-Apr-2021
 Local
(UTC-5)
 Zulu
(UTC)
Morning civil twilight06:0511:05
Sunrise06:3311:33
Sunset20:0101:01
Evening civil twilight20:2901:29

Current date and time
Zulu (UTC)  23-Apr-2021 02:08:56
Local (UTC-5)  22-Apr-2021 21:08:56
 
METAR
KMKC 
4nm N 
230154Z 15010KT 10SM OVC090 12/M03 A3002 RMK AO2 SLP167 T01171033
KLXT 
11nm SE 
230153Z AUTO 16006KT 10SM OVC085 10/01 A3003 RMK AO2 SLP173 T01000011
KOJC 
14nm SW 
230153Z 16007KT 10SM OVC080 10/M02 A3002 RMK AO2 SLP170 T01001022
KMCI 
17nm NW 
230153Z 16011KT 10SM OVC080 11/M02 A3001 RMK AO2 SLP164 T01111022
KIXD 
19nm SW 
230153Z 15007KT 10SM OVC080 10/M02 A3003 RMK AO2 SLP172 T01001022
TAF
KMKC 
4nm N 
221724Z 2218/2318 19008KT P6SM BKN100 FM230300 17007KT P6SM -SHRA OVC040 FM230600 16008KT P6SM -SHRA OVC010
KMCI 
17nm NW 
221724Z 2218/2318 19009KT P6SM BKN100 FM230300 17008KT P6SM -SHRA OVC040 FM230600 16009KT P6SM -SHRA OVC010
KIXD 
19nm SW 
221724Z 2218/2318 19009KT P6SM BKN100 FM230300 17008KT P6SM -SHRA OVC040 FM230600 16009KT P6SM -SHRA OVC010
NOTAMs
Click for the latest NOTAMs
NOTAMs are issued by the DoD/FAA and will open in a separate window not controlled by AirNav.

 

 
 

Would you like to see your business listed on this page?

 If your business provides an interesting product or service to pilots, flight crews, aircraft, or users of the St Lukes Hospital Heliport, you should consider listing it here.  To start the listing process, click on the button below
 
Add a business
 

Other Pages about St Lukes Hospital Heliport

Update a link
 
Copyright © AirNav, LLC. All rights reserved. Privacy Policy  Contact